• MPC Preparation (Info)

  • MPEC 2023-N47 : 2023 NV

    The following Minor Planet Electronic Circular may be linked-to from your own Web pages, but must not otherwise be redistributed electronically.

    A form allowing access to any MPEC is at the bottom of this page.


    Read MPEC 2023-N46 Read MPEC 2023-N48


    M.P.E.C. 2023-N47                                 Issued 2023 July 10, 22:47 UT
    
         The Minor Planet Electronic Circulars contain information on unusual
             minor planets, routine data on comets and natural satellites,
             and occasional editorial announcements.  They are published
        on behalf of Division F of the International Astronomical Union by the
              Minor Planet Center, Smithsonian Astrophysical Observatory,
                              Cambridge, MA 02138, U.S.A.
    			  
                 Prepared using the Tamkin Foundation Computer Network
    
                                  MPC@CFA.HARVARD.EDU
                URL https://www.minorplanetcenter.net/    ISSN 1523-6714
    
                                     2023 NV                                 
    
    
    Observations:
         K23N00V* C2023 07 09.44798820 26 54.918+06 28 21.50         21.08wXEN047F52
         K23N00V  C2023 07 09.45953120 26 55.488+06 29 46.10         20.71wXEN047F52
         K23N00V  C2023 07 09.48281120 26 56.608+06 32 36.56         20.58wXEN047F52
         K23N00V IC2023 07 10.02967820 27 36.564+07 39 36.00               VEN047J95
         K23N00V KC2023 07 10.04587420 27 37.510+07 41 36.42         20.1 GVEN047J95
         K23N00V KC2023 07 10.05095020 27 37.750+07 42 15.41         20.3 GVEN047J95
         K23N00V KC2023 07 10.05491920 27 37.999+07 42 45.22         20.0 GVEN047J95
         K23N00V KC2023 07 10.07552520 27 39.130+07 45 18.32         19.9 GVEN047J95
         K23N00V KC2023 07 10.21519620 27 51.25 +08 02 55.7          20.2 VuEN047H21
         K23N00V KC2023 07 10.22080820 27 51.55 +08 03 38.3                uEN047H21
         K23N00V KC2023 07 10.22642020 27 51.86 +08 04 20.6          20.3 VuEN047H21
         K23N00V KC2023 07 10.23203120 27 52.18 +08 05 02.8          20.3 VuEN047H21
         K23N00V KC2023 07 10.92264920 28 43.99 +09 32 41.5          19.9 GXEN047I93
         K23N00V KC2023 07 10.93073820 28 44.50 +09 33 43.6          20.4 GXEN047I93
         K23N00V KC2023 07 10.93882120 28 44.99 +09 34 46.1          20.0 GXEN047I93
    
    Observer details:
    F52 Pan-STARRS 2, Haleakala.  Observers J. Bulger, T. Lowe, P. Minguez, A.
        Schultz, I. Smith.  Measurers K. Chambers, T. de Boer, J. Bulger, J.
        Fairlamb, H. Gao, M. Huber, C.-C. Lin, T. Lowe, E. Magnier, P. Minguez, Y.
        Ramanjooloo, A. Schultz, I. Smith, R. Wainscoat, R. Weryk.  1.8-m Ritchey-
        Chretien + CCD.
    H21 Astronomical Research Observatory, Westfield.  Observer R. Holmes.
        Measurers T. Linder, R. Holmes, L. Horn.  0.81-m f/4.0 astrograph + CCD.
    I93 St Pardon de Conques.  Observer F. Losse.  0.40-m f/3.7 reflector + CMO.
    J95 Great Shefford.  Observer P. Birtwhistle.  0.41-m f/6.3 Schmidt-Cassegrain
        + CCD.
    
    Orbital elements:
    2023 NV                                                  Earth MOID = 0.1174 AU
    Epoch 2023 Feb. 25.0 TT = JDT 2460000.5                 MPC                     
    M 253.57438              (2000.0)            P               Q                  
    n   0.54812540     Peri.   78.97667     +0.97309228     +0.12814646             
    a   1.4787092      Node   273.45598     -0.19673568     +0.89470378             
    e   0.3337007      Incl.   11.06034     +0.11994367     +0.42788273             
    P   1.80           H   23.09          G   0.15           U   9                  
    Residuals in seconds of arc
    230709 F52  0.1-  0.0     230710 J95  0.2-  0.5+    230710 H21  0.1-  0.3-
    230709 F52  0.0   0.0     230710 J95  0.2+  0.6+    230710 H21  0.1+  0.4-
    230709 F52  0.0   0.1-    230710 J95  0.4-  0.5-    230710 I93  0.2-  0.5+
    230710 J95  0.1+  0.3+    230710 H21  0.0   0.5-    230710 I93  0.1+  0.1-
    230710 J95  0.5+  0.5-    230710 H21  0.1-  0.2-    230710 I93  0.1+  0.2-
    
    Ephemeris:
    2023 NV                  a,e,i = 1.48, 0.33, 11                  q = 0.9853
    Date    TT    R. A. (2000) Decl.     Delta      r    Elong.  Phase     V
    2023 06 10    19 52 38.9 -26 10 06   0.3151  1.2811   143.1    28.4    22.4
    ...
    2023 06 25    20 10 41.8 -15 12 33   0.2130  1.2072   151.0    24.1    21.3
    ...
    2023 07 03    20 19 30.0 -05 01 16   0.1709  1.1692   151.1    24.8    20.7
    ...
    2023 07 09    20 26 21.7 +05 34 21   0.1468  1.1418   146.4    29.5    20.5
    2023 07 10    20 27 33.9 +07 36 30   0.1435  1.1374   145.1    30.7    20.5
    2023 07 11    20 28 47.5 +09 43 10   0.1405  1.1330   143.7    32.1    20.5
    ...
    2023 07 17    20 36 55.0 +23 44 05   0.1273  1.1073   133.1    42.1    20.5
    ...
    2023 07 25    20 51 42.4 +43 50 37   0.1241  1.0756   115.8    58.3    20.8
    ...
    2023 08 09    22 01 15.1 +73 01 14   0.1514  1.0266    90.5    81.0    21.9
    
    A. U. Tomatic                (C) Copyright 2023 MPC           M.P.E.C. 2023-N47
    


    Read MPEC 2023-N46 Read MPEC 2023-N48


    MPEC number:

    Enter an MPEC number in one of the following forms:

    • 1997-B01 (the full form)
    • J97B01 (the packed version of the full form)
    • B01 (the abbreviated form)